Weather History for Grants-Milan, NM

Change the Weather History Date:

Friday, February 1, 2013

  Actual Average Record
Temperature  
Mean Temperature 34 °F -  
Max Temperature 57 °F 46 °F 64 °F (1971)
Min Temperature 10 °F 14 °F -5 °F (2002)
Degree Days  
Heating Degree Days 32    
Moisture  
Dew Point 15 °F    
Average Humidity 62    
Maximum Humidity 93    
Minimum Humidity 14    
Precipitation  
Precipitation 0.00 in - - ()
Sea Level Pressure  
Sea Level Pressure 30.29 in    
Wind  
Wind Speed 7 mph (NW)    
Max Wind Speed 20 mph    
Max Gust Speed 25 mph    
Visibility 10 miles    
Events      
Averages and records for this station are not official NWS values.
T = Trace of Precipitation, MM = Missing Value Source: NWS Daily Summary

Daily Weather History Graph

Daily Weather History Graph

Search for Another Location

Airport:

Trip Planner

Search our weather history database for the weather conditions in past years. The results will help you decide how hot, cold, wet, or windy it might be!

Date:

Astronomy

Feb. 01, 2013 Rise Set
Actual Time 7:10 AM MST 5:40 PM MST
Civil Twilight 6:43 AM MST 6:07 PM MST
Nautical Twilight 6:13 AM MST 6:37 PM MST
Astronomical Twilight 5:43 AM MST 7:07 PM MST
Moon 11:34 PM MST 10:00 AM MST
Length of Visible Light 11h 23m
Length of Day
10h 30m
Waning Gibbous, 69% of the Moon is Illuminated
Feb 1
Waning Gibbous
Feb 3
Last Quarter
Feb 10
New
Feb 17
First Quarter
Feb 25
Full

Hourly Weather History & Observations

Time (MST) Temp. Windchill Dew Point Humidity Pressure Visibility Wind Dir Wind Speed Gust Speed Precip Events Conditions
12:15 AM 19.4 °F 9.5 °F 15.3 °F 84% 30.30 in 10.0 mi NW 8.1 mph - N/A   Clear
12:35 AM 19.4 °F 10.4 °F 16.3 °F 88% 30.29 in 10.0 mi NW 6.9 mph - N/A   Clear
12:55 AM 18.5 °F 9.3 °F 16.0 °F 90% 30.29 in 10.0 mi NNW 6.9 mph - N/A   Clear
1:15 AM 16.9 °F 7.4 °F 14.5 °F 91% 30.29 in 10.0 mi NW 6.9 mph - N/A   Clear
1:35 AM 19.4 °F 8.6 °F 16.2 °F 87% 30.30 in 10.0 mi WNW 9.2 mph - N/A   Clear
1:55 AM 20.1 °F 9.5 °F 16.7 °F 87% 30.30 in 10.0 mi NW 9.2 mph - N/A   Clear
2:15 AM 19.4 °F 11.5 °F 16.5 °F 89% 30.30 in 10.0 mi WNW 5.8 mph - N/A   Clear
2:35 AM 16.2 °F 6.5 °F 14.4 °F 93% 30.30 in 10.0 mi NW 6.9 mph - N/A   Clear
2:55 AM 16.2 °F 10.6 °F 14.4 °F 93% 30.30 in 10.0 mi NW 3.5 mph - N/A   Clear
3:15 AM 15.4 °F 6.8 °F 13.5 °F 92% 30.30 in 10.0 mi NW 5.8 mph - N/A   Clear
3:35 AM 14.5 °F 7.1 °F 12.4 °F 91% 30.30 in 10.0 mi NNW 4.6 mph - N/A   Clear
3:55 AM 14.9 °F 6.1 °F 12.9 °F 92% 30.30 in 10.0 mi NNW 5.8 mph - N/A   Clear
4:15 AM 12.4 °F 3.1 °F 10.2 °F 91% 30.29 in 10.0 mi NW 5.8 mph - N/A   Clear
4:35 AM 13.1 °F 2.8 °F 11.3 °F 93% 30.29 in 10.0 mi NW 6.9 mph - N/A   Clear
4:55 AM 11.7 °F 1.1 °F 9.3 °F 90% 30.29 in 10.0 mi NW 6.9 mph - N/A   Clear
5:15 AM 10.9 °F 1.4 °F 8.6 °F 90% 30.28 in 10.0 mi NW 5.8 mph - N/A   Clear
5:35 AM 10.4 °F -1.5 °F 8.2 °F 91% 30.28 in 10.0 mi NNW 8.1 mph - N/A   Clear
5:55 AM 12.7 °F 1.4 °F 10.4 °F 90% 30.29 in 10.0 mi NW 8.1 mph - N/A   Clear
6:15 AM 12.0 °F 1.5 °F 9.5 °F 90% 30.29 in 10.0 mi NW 6.9 mph - N/A   Clear
6:35 AM 12.2 °F 2.9 °F 10.2 °F 92% 30.30 in 10.0 mi NW 5.8 mph - N/A   Clear
6:55 AM 12.2 °F 1.7 °F 10.4 °F 92% 30.30 in 10.0 mi NW 6.9 mph - N/A   Clear
7:15 AM 11.1 °F 3.1 °F 8.6 °F 90% 30.30 in 10.0 mi NW 4.6 mph - N/A   Clear
7:35 AM 12.2 °F 1.7 °F 10.0 °F 91% 30.30 in 10.0 mi NNW 6.9 mph - N/A   Clear
7:55 AM 13.5 °F 4.4 °F 11.1 °F 90% 30.30 in 10.0 mi NNW 5.8 mph - N/A   Clear
8:15 AM 15.6 °F 4.9 °F 13.1 °F 90% 30.30 in 10.0 mi NW 8.1 mph - N/A   Clear
8:35 AM 18.7 °F 8.6 °F 16.3 °F 91% 30.31 in 10.0 mi WNW 8.1 mph - N/A   Clear
8:55 AM 22.8 °F 14.5 °F 19.2 °F 86% 30.32 in 10.0 mi NW 6.9 mph - N/A   Clear
9:15 AM 25.5 °F 18.7 °F 20.7 °F 82% 30.32 in 10.0 mi NNW 5.8 mph - N/A   Clear
9:35 AM 27.5 °F - 20.1 °F 74% 30.32 in 10.0 mi Calm Calm - N/A   Clear
9:55 AM 30.6 °F - 20.5 °F 66% 30.32 in 10.0 mi Calm Calm - N/A   Clear
10:15 AM 33.3 °F - 21.7 °F 63% 30.32 in 10.0 mi Calm Calm - N/A   Clear
10:35 AM 36.5 °F 31.8 °F 23.2 °F 59% 30.32 in 10.0 mi NNW 5.8 mph - N/A   Clear
10:55 AM 38.3 °F 35.9 °F 23.4 °F 55% 30.32 in 10.0 mi NW 3.5 mph - N/A   Clear
11:15 AM 41.5 °F 38.6 °F 23.5 °F 49% 30.30 in 10.0 mi NW 4.6 mph - N/A   Clear
11:35 AM 44.4 °F 41.2 °F 21.2 °F 40% 30.29 in 10.0 mi North 5.8 mph - N/A   Clear
11:55 AM 46.8 °F - 19.6 °F 34% 30.28 in 10.0 mi NNW 6.9 mph - N/A   Clear
12:15 PM 49.8 °F - 16.5 °F 27% 30.26 in 10.0 mi NNW 5.8 mph - N/A   Clear
12:35 PM 50.9 °F - 15.3 °F 24% 30.26 in 10.0 mi NNE 6.9 mph - N/A   Clear
12:55 PM 52.5 °F - 14.9 °F 23% 30.24 in 10.0 mi NNW 8.1 mph - N/A   Clear
1:15 PM 53.1 °F - 13.8 °F 21% 30.23 in 10.0 mi North 5.8 mph - N/A   Clear
1:35 PM 54.9 °F - 12.7 °F 19% 30.23 in 10.0 mi North 10.4 mph - N/A   Clear
1:55 PM 54.9 °F - 12.0 °F 18% 30.22 in 10.0 mi North 10.4 mph - N/A   Clear
2:15 PM 55.8 °F - 12.0 °F 18% 30.21 in 10.0 mi NNW 9.2 mph - N/A   Clear
2:35 PM 57.2 °F - 11.1 °F 16% 30.21 in 10.0 mi NNW 16.1 mph 20.7 mph N/A   Clear
2:55 PM 56.7 °F - 10.9 °F 16% 30.21 in 10.0 mi NNW 15.0 mph 24.2 mph N/A   Clear
3:15 PM 56.3 °F - 9.9 °F 16% 30.21 in 10.0 mi North 19.6 mph 24.2 mph N/A   Clear
3:35 PM 55.8 °F - 9.0 °F 15% 30.22 in 10.0 mi NNW 18.4 mph 25.3 mph N/A   Clear
3:55 PM 55.6 °F - 6.6 °F 14% 30.23 in 10.0 mi NNW 15.0 mph 21.9 mph N/A   Clear
4:15 PM 54.9 °F - 8.1 °F 15% 30.24 in 10.0 mi North 11.5 mph - N/A   Clear
4:35 PM 53.8 °F - 11.1 °F 18% 30.24 in 10.0 mi NNW 12.7 mph - N/A   Clear
4:55 PM 52.5 °F - 13.8 °F 22% 30.24 in 10.0 mi North 12.7 mph - N/A   Clear
5:15 PM 50.9 °F - 15.1 °F 24% 30.24 in 10.0 mi NNW 9.2 mph - N/A   Clear
5:35 PM 47.5 °F - 16.3 °F 29% 30.24 in 10.0 mi North 6.9 mph - N/A   Clear
5:55 PM 41.0 °F 37.1 °F 15.1 °F 35% 30.25 in 10.0 mi NNW 5.8 mph - N/A   Clear
6:15 PM 40.8 °F 35.0 °F 16.2 °F 37% 30.26 in 10.0 mi NW 9.2 mph - N/A   Clear
6:35 PM 37.0 °F 31.0 °F 16.9 °F 44% 30.27 in 10.0 mi NW 8.1 mph - N/A   Clear
6:55 PM 37.6 °F 31.6 °F 18.5 °F 46% 30.29 in 10.0 mi NW 8.1 mph - N/A   Clear
7:15 PM 35.4 °F 30.5 °F 18.3 °F 50% 30.30 in 10.0 mi NW 5.8 mph - N/A   Clear
7:35 PM 32.7 °F 29.6 °F 18.5 °F 56% 30.30 in 10.0 mi WNW 3.5 mph - N/A   Clear
7:55 PM 33.8 °F 30.8 °F 19.4 °F 56% 30.30 in 10.0 mi NNW 3.5 mph - N/A   Clear
8:15 PM 31.5 °F 24.9 °F 18.7 °F 59% 30.30 in 10.0 mi WNW 6.9 mph - N/A   Clear
8:35 PM 30.7 °F 27.3 °F 19.0 °F 62% 30.31 in 10.0 mi NNE 3.5 mph - N/A   Clear
8:55 PM 32.0 °F - 19.0 °F 59% 30.32 in 10.0 mi Calm Calm - N/A   Clear
9:15 PM 28.0 °F - 18.3 °F 67% 30.33 in 10.0 mi Calm Calm - N/A   Clear
9:35 PM 26.6 °F - 18.3 °F 71% 30.34 in 10.0 mi Calm Calm - N/A   Clear
9:55 PM 23.9 °F 18.0 °F 18.1 °F 79% 30.35 in 10.0 mi WNW 4.6 mph - N/A   Clear
10:15 PM 26.1 °F 20.5 °F 18.3 °F 73% 30.35 in 10.0 mi WNW 4.6 mph - N/A   Clear
10:35 PM 26.1 °F 16.8 °F 18.1 °F 72% 30.35 in 10.0 mi NW 9.2 mph - N/A   Clear
10:55 PM 25.7 °F 18.0 °F 18.7 °F 75% 30.35 in 10.0 mi WNW 6.9 mph - N/A   Clear
11:15 PM 23.5 °F 19.1 °F 17.6 °F 78% 30.35 in 10.0 mi NNW 3.5 mph - N/A   Clear
11:35 PM 19.9 °F 11.1 °F 15.1 °F 81% 30.36 in 10.0 mi NNW 6.9 mph - N/A   Clear
11:55 PM 17.8 °F 8.5 °F 13.8 °F 84% 30.36 in 10.0 mi NW 6.9 mph - N/A   Clear